[[{"header":{"parameterUnit":"m.s-1","parameterCategory":2,"la1":30.2991,"la2":30.254,"lo1":-89.0895,"lo2":-89.0444,"dy":0.0017,"dx":0.0017,"nx":28,"ny":28,"refTime":"2026-02-10T03:00:00:Z","depth":"0","parameterNumber":2,"parameterNumberName":"U-component_of_CURRENTS"},"data":[0,0,0,0,0,0,0,0,0,0,0,0,0,0,0,0,0,0,0,0,0,0,0,0,0,0,0,0,0,0,0,0,0,0,0,0,0,0,0,0,0,0,0,0,0,0,0,0,0,0,0,0,0,0,0,0,0,0,0.2524,0.2525,0,0.2609,0.261,0.2611,0.2643,0.2643,0.2643,0.2643,0.272,0.2722,0.2724,0,0,0,0,0,0,0,0,0,0,0,0,0,0.2399,0.2401,0.2524,0.2525,0.2526,0.2609,0.261,0.2611,0.2643,0.2643,0.2643,0.2643,0.2719,0.2722,0.2725,0,0,0,0,0,0,0,0,0,0,0,0,0,0.2464,0.2401,0.2524,0.2553,0.2557,0.2609,0.261,0.2611,0.2643,0.2643,0.2643,0.2642,0.2719,0.2722,0.2725,0.2749,0,0,0.2735,0.2736,0,0,0,0,0,0,0,0,0.246,0.2468,0.2548,0.2551,0.2555,0.2616,0.2594,0.2657,0.2643,0.2609,0.2643,0.2642,0.2686,0.2692,0.2706,0.2753,0.2756,0.2735,0.2737,0.2739,0.274,0,0,0,0,0,0,0,0.2456,0.2465,0.2556,0.2549,0.2554,0.2566,0.2575,0.2606,0.2646,0.2612,0.2615,0.2627,0.2688,0.2703,0.2708,0.2757,0.2735,0.2738,0.274,0.2741,0.2818,0.2819,0,0,0,0,0,0,0.2448,0.2461,0.2553,0.2559,0.2508,0.2568,0.2578,0.2596,0.2646,0.2654,0.2627,0.2628,0.2698,0.2704,0.2711,0.2783,0.2739,0.2742,0.2744,0.2818,0.2819,0.2819,0,0,0,0,0,0,0.2445,0.2456,0.255,0.2512,0.2525,0.2571,0.259,0.2598,0.2618,0.2658,0.2665,0.264,0.2698,0.2707,0.2729,0.2784,0.2743,0.2746,0.2818,0.2818,0.2819,0.29,0,0,0,0,0,0,0.2441,0.2454,0.2466,0.2512,0.2527,0.2583,0.2591,0.26,0.2626,0.2628,0.2672,0.2678,0.2698,0.2724,0.2732,0.2788,0.2749,0.2818,0.2818,0.2819,0.2897,0.2903,0.2907,0,0,0,0,0,0.2437,0.2458,0.2466,0.2477,0.2541,0.2583,0.2592,0.2622,0.2627,0.2639,0.2655,0.2677,0.2731,0.2726,0.2736,0.2795,0.2818,0.2818,0.2819,0.2895,0.2901,0.2907,0,0,0,0,0,0,0.2416,0.2465,0.2474,0.2511,0.2543,0.2589,0.2608,0.2624,0.2649,0.2649,0.2677,0.2685,0.2729,0.2732,0.2726,0.2809,0.2779,0.2782,0.2834,0.2841,0.2846,0.2957,0.2751,0,0,0,0,0,0.2415,0.2442,0.2484,0.2514,0.2528,0.2566,0.2587,0.2606,0.2635,0.2646,0.2671,0.2697,0.2738,0.2762,0.2784,0.2831,0.2882,0.287,0.2875,0.288,0.2972,0.3051,0.3074,0.2819,0.2819,0.2819,0,0,0.2422,0.2447,0.2467,0.2511,0.2537,0.2606,0.2578,0.2612,0.2686,0.2651,0.2732,0.2714,0.2748,0.2801,0.2822,0.2815,0.2966,0.288,0.2885,0.2977,0.3054,0.308,0.3103,0.2819,0.2819,0.2819,0,0,0.2485,0.2463,0.2533,0.2558,0.2601,0.2617,0.2628,0.2668,0.2696,0.2744,0.275,0.2774,0.2806,0.287,0.2902,0.2951,0.2984,0.2924,0.3064,0.3136,0.316,0.3182,0.3241,0.3268,0.2936,0.2936,0.2936,0,0.2502,0.2595,0.2556,0.2636,0.2685,0.2633,0.2739,0.2755,0.2798,0.2854,0.2775,0.2873,0.287,0.3017,0.3025,0.298,0.3009,0.304,0.3151,0.3174,0.3195,0.3251,0.328,0.294,0.294,0.2939,0.2939,0,0.2658,0.2711,0.2743,0.2834,0.2863,0.2923,0.2945,0.2975,0.2964,0.2996,0.3078,0.3047,0.3128,0.3098,0.3086,0.3241,0.3206,0.3141,0.3151,0.3228,0.3278,0.3307,0.2946,0.2945,0.2943,0.2942,0,0,0.2786,0.285,0.2867,0.2931,0.2977,0.3018,0.312,0.3224,0.3301,0.3285,0.3418,0.344,0.3397,0.3433,0.339,0.3446,0.3574,0.3368,0.337,0.346,0.3735,0.3656,0.3678,0.3517,0.3523,0.3528,0.3697,0,0.2948,0.3107,0.3109,0.3258,0.3346,0.3327,0.3416,0.3478,0.3485,0.3564,0.3566,0.3621,0.353,0.3533,0.3593,0.3569,0.3661,0.3537,0.3625,0.363,0.3577,0.3714,0.3581,0.3718,0.3725,0.373,0.3733,0,0.3165,0.3223,0.3392,0.3473,0.351,0.3571,0.369,0.376,0.3843,0.3849,0.3917,0.3879,0.3989,0.3845,0.3958,0.3872,0.3865,0.383,0.3834,0.3782,0.3607,0.3648,0.377,0.3622,0.3778,0.3774,0.3771,0,0.3315,0.3445,0.3569,0.3603,0.3671,0.3746,0.3781,0.3858,0.3906,0.4024,0.4046,0.4155,0.4157,0.4205,0.4123,0.4061,0.4207,0.4099,0.4051,0.4042,0.3972,0.3947,0.4007,0.4257,0.4256,0.4256,0.4256,0,0.3517,0.3613,0.3627,0.3687,0.3799,0.3832,0.3939,0.3995,0.4065,0.4114,0.4176,0.4219,0.4239,0.4281,0.4246,0.4241,0.4318,0.4166,0.4118,0.3983,0.3959,0.3857,0.3785,0.4262,0.4261,0.426,0.4259,0,0.3652,0.3688,0.3792,0.3846,0.3863,0.3924,0.3964,0.4016,0.4095,0.4167,0.4206,0.4297,0.4362,0.4376,0.4427,0.4361,0.4258,0.436,0.4193,0.4125,0.3928,0.3864,0.3861,0.3755,0.4383,0.4383,0.4383,0,0.3734,0.3799,0.3842,0.3852,0.386,0.3925,0.3944,0.4019,0.4046,0.4178,0.4203,0.4328,0.4367,0.4445,0.44,0.4419,0.4259,0.4284,0.4168,0.3988,0.3883,0.3726,0.3625,0.4087,0.4084,0.4082,0.408,0,0.381,0.3802,0.3832,0.3852,0.3867,0.3897,0.3927,0.3949,0.4023,0.4082,0.4137,0.4203,0.4313,0.4272,0.4319,0.4296,0.4081,0.4238,0.4112,0.376,0.3542,0.3388,0.3886,0.4061,0.4063,0.4064,0.4065,0.4066,0.3787,0.3794,0.3791,0.3804,0.3822,0.3816,0.38,0.3825,0.385,0.387,0.3996,0.4016,0.4091,0.4148,0.4117,0.3958,0.3951,0.3821,0.3794,0.3677,0.3486,0.3948,0.401,0.4011,0.4013,0.4014,0.4015,0,0.3712,0.3716,0.3732,0.372,0.3696,0.3738,0.3732,0.3677,0.3636,0.3706,0.3728,0.3701,0.372,0.3753,0.3665,0.3515,0.3377,0.3409,0.317,0.3118,0.3596,0.3489,0.3366,0.3366,0.3366,0.3366,0.3366,0.3367,0.3665,0.3633,0.3638,0.3569,0.3562,0.3479,0.3444,0.3391,0.34,0.3283,0.322,0.3245,0.3318,0.336,0.3215,0.3143,0.2891,0.2793,0.2768,0.3094,0.3128,0.3161,0.3044,0.283,0.2829,0.2174,0.2169,0.2165]},{"header":{"parameterUnit":"m.s-1","parameterCategory":2,"la1":30.2991,"la2":30.254,"lo1":-89.0895,"lo2":-89.0444,"dy":0.0017,"dx":0.0017,"nx":28,"ny":28,"refTime":"2026-02-10T03:00:00:Z","depth":"0","parameterNumber":3,"parameterNumberName":"V-component_of_CURRENTS"},"data":[0,0,0,0,0,0,0,0,0,0,0,0,0,0,0,0,0,0,0,0,0,0,0,0,0,0,0,0,0,0,0,0,0,0,0,0,0,0,0,0,0,0,0,0,0,0,0,0,0,0,0,0,0,0,0,0,0,0,0.0169,0.0169,0,0.0105,0.0104,0.0103,0.0052,0.0051,0.0051,0.0051,-0.0025,-0.0027,-0.0029,0,0,0,0,0,0,0,0,0,0,0,0,0,0.0199,0.0199,0.0169,0.0169,0.0168,0.0105,0.0104,0.0103,0.0052,0.0051,0.0051,0.0051,-0.0025,-0.0027,-0.0029,0,0,0,0,0,0,0,0,0,0,0,0,0,0.0163,0.0198,0.0169,0.0137,0.0134,0.0105,0.0104,0.0102,0.0052,0.0051,0.0051,0.0051,-0.0024,-0.0026,-0.0029,-0.0037,0,0,-0.0037,-0.0038,0,0,0,0,0,0,0,0,0.0165,0.0162,0.0142,0.0139,0.0135,0.0088,0.0087,0.0056,0.0052,0.008,0.0051,0.005,0.0014,0.0008,-0.0007,-0.0041,-0.0044,-0.0037,-0.0039,-0.004,-0.0041,0,0,0,0,0,0,0,0.0168,0.0164,0.0141,0.0142,0.0138,0.0109,0.0104,0.008,0.0048,0.0077,0.0074,0.0072,0.0011,-0.0004,-0.0009,-0.0045,-0.0037,-0.004,-0.0041,-0.0042,-0.0064,-0.0063,0,0,0,0,0,0,0.0184,0.0167,0.0143,0.0139,0.0153,0.0109,0.0103,0.0102,0.0048,0.004,0.0072,0.0069,0.0,-0.0006,-0.0012,0.0029,-0.004,-0.0043,-0.0044,-0.0065,-0.0064,-0.0063,0,0,0,0,0,0,0.0185,0.0183,0.0146,0.0153,0.0147,0.011,0.0108,0.0101,0.0089,0.0044,0.0036,0.0069,-0.0,-0.0008,-0.0026,0.0023,-0.0044,-0.0046,-0.0066,-0.0065,-0.0063,0.0075,0,0,0,0,0,0,0.0186,0.0183,0.0186,0.0155,0.0147,0.0142,0.0109,0.01,0.0089,0.0085,0.004,0.0032,-0.0001,-0.0021,-0.0028,0.0018,-0.0048,-0.0068,-0.0066,-0.0064,0.0069,0.0081,0.0091,0,0,0,0,0,0.0187,0.0203,0.0186,0.0183,0.0152,0.0143,0.0137,0.0106,0.009,0.0093,0.0059,0.0033,-0.0014,-0.0023,-0.0031,0.0016,-0.0068,-0.0066,-0.0064,0.0064,0.0079,0.0091,0,0,0,0,0,0,0.0219,0.0198,0.0179,0.0187,0.017,0.0135,0.0136,0.0115,0.0089,0.0085,0.0039,0.0029,0.0037,-0.0003,-0.0011,0.0012,-0.0042,-0.0042,0.0058,0.0071,0.0082,0.0148,-0.0051,0,0,0,0,0,0.0227,0.0231,0.0204,0.021,0.0205,0.017,0.0161,0.0143,0.0118,0.0106,0.0074,0.0045,0.0039,0.0031,0.0009,0.0016,0.0002,0.004,0.0052,0.0061,0.0108,0.012,0.0138,-0.0055,-0.0055,-0.0055,0,0,0.0242,0.023,0.0232,0.0217,0.0199,0.0221,0.0164,0.0161,0.0189,0.0103,0.0121,0.008,0.0047,0.0062,0.0063,0.0037,0.0103,0.0064,0.0074,0.0115,0.0125,0.0144,0.0161,-0.0054,-0.0054,-0.0054,0,0,0.03,0.0263,0.0299,0.0287,0.0272,0.0254,0.026,0.0231,0.0224,0.0226,0.0186,0.0184,0.0144,0.0153,0.0149,0.0208,0.016,0.0181,0.0296,0.0308,0.0325,0.034,0.0329,0.0342,0.0188,0.0189,0.0189,0,0.0325,0.0361,0.0308,0.0341,0.0353,0.0282,0.0337,0.0318,0.0287,0.0306,0.025,0.0247,0.0208,0.0273,0.0289,0.0243,0.022,0.0252,0.0327,0.0341,0.0355,0.0339,0.0352,0.0196,0.0195,0.0194,0.0194,0,0.0424,0.044,0.0458,0.0482,0.0484,0.0508,0.0485,0.0487,0.046,0.0449,0.0481,0.0423,0.0435,0.0412,0.0369,0.045,0.0393,0.034,0.0304,0.0383,0.036,0.0371,0.0206,0.0203,0.0201,0.0199,0,0,0.0519,0.0532,0.0539,0.0566,0.0562,0.0575,0.0625,0.0662,0.0706,0.0663,0.0741,0.0715,0.0674,0.0669,0.061,0.0614,0.0668,0.0522,0.052,0.0532,0.0675,0.0629,0.0635,0.0617,0.062,0.0623,0.0615,0,0.0622,0.0706,0.0698,0.0779,0.0815,0.0782,0.0836,0.085,0.0839,0.0879,0.0848,0.0873,0.0773,0.0775,0.0775,0.0698,0.0705,0.0675,0.058,0.0578,0.0545,0.065,0.0611,0.0602,0.0625,0.0627,0.0628,0,0.074,0.0771,0.0871,0.0919,0.0939,0.098,0.1049,0.1083,0.1116,0.1113,0.1136,0.109,0.1121,0.1001,0.0958,0.0934,0.0837,0.076,0.0756,0.0687,0.0555,0.0527,0.0619,0.0412,0.0644,0.0643,0.0642,0,0.0826,0.09,0.0981,0.0992,0.1035,0.109,0.112,0.1157,0.1188,0.1258,0.1286,0.1303,0.1302,0.1218,0.1062,0.1013,0.0989,0.0894,0.0769,0.0761,0.0703,0.0687,0.0612,0.0885,0.0885,0.0885,0.0885,0,0.0937,0.0994,0.1017,0.105,0.1138,0.1158,0.1248,0.1282,0.134,0.1396,0.1399,0.1452,0.1352,0.1309,0.1155,0.1014,0.1065,0.0839,0.0783,0.0744,0.0732,0.0526,0.0414,0.0884,0.0884,0.0885,0.0885,0,0.0999,0.1029,0.109,0.1145,0.1167,0.1214,0.1278,0.1332,0.1397,0.1478,0.1509,0.1569,0.1555,0.143,0.1307,0.113,0.0881,0.0921,0.0877,0.0818,0.0501,0.0399,0.0318,0.0235,0.0804,0.0804,0.0803,0,0.1037,0.1072,0.1117,0.1138,0.1158,0.122,0.1262,0.1337,0.1388,0.1538,0.1585,0.1649,0.1708,0.1542,0.1293,0.108,0.088,0.0838,0.0753,0.053,0.0375,0.0309,0.0239,0.071,0.0708,0.0707,0.0706,0,0.1058,0.1061,0.1091,0.1136,0.1177,0.1235,0.1307,0.1365,0.1472,0.1574,0.1727,0.1818,0.1729,0.1566,0.1289,0.1094,0.0693,0.0807,0.06,0.0346,0.025,0.0125,0.0642,0.0696,0.0697,0.0698,0.0699,0.0699,0.1029,0.1038,0.1065,0.1114,0.1168,0.1255,0.1322,0.1429,0.1557,0.1767,0.1824,0.2019,0.1737,0.1411,0.1144,0.0589,0.0629,0.0381,0.0289,0.0254,0.0147,0.0644,0.0616,0.0617,0.0617,0.0618,0.0618,0,0.0977,0.1005,0.1044,0.1111,0.1177,0.1221,0.1352,0.1456,0.1634,0.1877,0.2043,0.2016,0.163,0.1226,0.0504,0.0123,-0.0011,-0.0092,-0.0209,-0.0245,0.0212,0.0178,0.0027,0.0027,0.0027,0.0027,0.0027,0.0028,0.0947,0.0966,0.1002,0.1095,0.116,0.1275,0.1362,0.1556,0.1761,0.2064,0.2229,0.2346,0.195,0.066,-0.0189,-0.0369,-0.064,-0.0687,-0.0791,-0.0528,-0.0492,-0.0457,-0.0515,-0.081,-0.0811,-0.1218,-0.1223,-0.1226]}],[{"header":{"parameterUnit":"m.s-1","parameterCategory":2,"la1":30.2991,"la2":30.254,"lo1":-89.0895,"lo2":-89.0444,"dy":0.0017,"dx":0.0017,"nx":28,"ny":28,"refTime":"2026-02-10T03:00:00:Z","depth":"2","parameterNumber":2,"parameterNumberName":"U-component_of_CURRENTS"},"data":[0,0,0,0,0,0,0,0,0,0,0,0,0,0,0,0,0,0,0,0,0,0,0,0,0,0,0,0,0,0,0,0,0,0,0,0,0,0,0,0,0,0,0,0,0,0,0,0,0,0,0,0,0,0,0,0,0,0,0.184,0.1841,0,0.1897,0.1897,0.1898,0.1919,0.1919,0.192,0.192,0.1946,0.1946,0.1946,0,0,0,0,0,0,0,0,0,0,0,0,0,0.1763,0.1764,0.1839,0.1841,0.1842,0.1897,0.1897,0.1898,0.1919,0.1919,0.192,0.192,0.1945,0.1946,0.1946,0,0,0,0,0,0,0,0,0,0,0,0,0,0.1801,0.1764,0.1839,0.1863,0.1866,0.1897,0.1897,0.1898,0.1919,0.1919,0.192,0.192,0.1945,0.1946,0.1946,0.194,0,0,0.1948,0.1948,0,0,0,0,0,0,0,0,0.1798,0.1803,0.1859,0.1862,0.1865,0.1906,0.188,0.1912,0.1919,0.1893,0.192,0.192,0.1933,0.1934,0.1937,0.1942,0.1943,0.1948,0.1949,0.1949,0.1949,0,0,0,0,0,0,0,0.1796,0.1801,0.1857,0.186,0.1864,0.1877,0.1882,0.1886,0.1904,0.1895,0.1898,0.1913,0.1934,0.1936,0.1937,0.1943,0.1948,0.1949,0.1949,0.1949,0.2014,0.2015,0,0,0,0,0,0,0.1799,0.1798,0.1855,0.1859,0.1839,0.1878,0.1884,0.1888,0.1905,0.191,0.1913,0.1914,0.1935,0.1937,0.1938,0.1997,0.1949,0.1949,0.195,0.2013,0.2014,0.2016,0,0,0,0,0,0,0.1797,0.1803,0.1853,0.1835,0.1843,0.188,0.1884,0.1889,0.19,0.192,0.1923,0.1921,0.1935,0.1938,0.196,0.1996,0.195,0.195,0.2011,0.2013,0.2015,0.2073,0,0,0,0,0,0,0.1794,0.1801,0.1808,0.1835,0.1844,0.1879,0.1884,0.189,0.1911,0.1914,0.1928,0.193,0.1936,0.1959,0.1961,0.1996,0.1951,0.2009,0.2012,0.2014,0.2069,0.2077,0.2083,0,0,0,0,0,0.1791,0.181,0.1808,0.1816,0.1851,0.188,0.1885,0.1909,0.1911,0.1919,0.1935,0.193,0.1977,0.1961,0.1962,0.1998,0.2008,0.2011,0.2014,0.2066,0.2075,0.2083,0,0,0,0,0,0,0.1777,0.1815,0.1814,0.184,0.1858,0.1886,0.1905,0.1911,0.1928,0.1937,0.194,0.1944,0.1981,0.1977,0.1958,0.2025,0.1995,0.1998,0.2034,0.2042,0.2049,0.21,0.1951,0,0,0,0,0,0.1777,0.1803,0.1826,0.1846,0.1856,0.1875,0.1891,0.1907,0.1928,0.1936,0.1948,0.1968,0.1993,0.2006,0.2022,0.2049,0.2068,0.2076,0.2083,0.2089,0.2133,0.2186,0.2202,0.2026,0.2026,0.2026,0,0,0.1781,0.1803,0.1819,0.1846,0.1861,0.189,0.1884,0.1917,0.1956,0.1936,0.1986,0.1989,0.2004,0.2046,0.2063,0.2048,0.2141,0.2093,0.2098,0.2139,0.2191,0.2208,0.2224,0.2028,0.2028,0.2027,0,0,0.1812,0.1814,0.185,0.1862,0.1895,0.1909,0.1918,0.1947,0.1976,0.2002,0.2021,0.205,0.2059,0.2105,0.2121,0.2173,0.2174,0.217,0.2251,0.2301,0.2316,0.233,0.2346,0.2361,0.2176,0.2176,0.2176,0,0.1822,0.1848,0.1863,0.1892,0.1909,0.1918,0.195,0.1984,0.2022,0.2053,0.2024,0.21,0.2096,0.2195,0.2216,0.2193,0.2212,0.2214,0.2312,0.2326,0.234,0.2353,0.2369,0.2179,0.2179,0.2178,0.2178,0,0.1865,0.1887,0.1905,0.1944,0.1968,0.199,0.2035,0.2074,0.2085,0.2109,0.2188,0.2203,0.2249,0.2254,0.2248,0.236,0.2338,0.231,0.2293,0.2361,0.2369,0.2385,0.2183,0.2182,0.2181,0.2181,0,0,0.1897,0.1931,0.1939,0.1944,0.199,0.2006,0.2092,0.2154,0.218,0.2245,0.2301,0.2374,0.238,0.2405,0.2421,0.2479,0.2558,0.2446,0.2447,0.2466,0.2659,0.2576,0.2584,0.2552,0.2555,0.2558,0.2616,0,0.1925,0.1959,0.1992,0.2028,0.2036,0.2082,0.2135,0.22,0.2226,0.2277,0.2373,0.2397,0.2441,0.2437,0.2531,0.2547,0.2609,0.2545,0.2588,0.259,0.2512,0.2604,0.2398,0.2428,0.2631,0.2633,0.2635,0,0.1938,0.1968,0.199,0.2026,0.2037,0.2091,0.215,0.2189,0.2289,0.2318,0.2429,0.2438,0.2588,0.2556,0.2731,0.2691,0.27,0.2713,0.2714,0.2642,0.2539,0.2399,0.2449,0.2661,0.2659,0.2657,0.2655,0,0.1886,0.1955,0.1958,0.1967,0.2024,0.2093,0.2148,0.2219,0.2249,0.2347,0.2375,0.2524,0.2604,0.2687,0.2757,0.2726,0.291,0.284,0.2793,0.2784,0.2624,0.2596,0.2953,0.2952,0.2952,0.2952,0.2952,0,0.1854,0.1877,0.1947,0.1948,0.1984,0.2055,0.2088,0.2168,0.2266,0.2307,0.2404,0.2492,0.2644,0.2751,0.2787,0.2877,0.2943,0.2849,0.2817,0.2632,0.2605,0.2821,0.2805,0.2954,0.2954,0.2953,0.2953,0,0.178,0.1809,0.1818,0.1907,0.1943,0.1971,0.2082,0.2096,0.2215,0.2295,0.2332,0.2514,0.2651,0.2772,0.2888,0.2908,0.2957,0.2957,0.2723,0.2664,0.2777,0.2763,0.2885,0.2883,0.2881,0.288,0.2879,0,0.1719,0.1697,0.176,0.1774,0.184,0.19,0.193,0.2063,0.2103,0.2305,0.2361,0.2524,0.2604,0.2785,0.2838,0.2886,0.2955,0.2699,0.2603,0.2826,0.2782,0.2771,0.2759,0.2395,0.239,0.2386,0.2383,0,0.16,0.1616,0.1648,0.1693,0.1747,0.1754,0.1863,0.1902,0.205,0.2137,0.2285,0.235,0.2551,0.2535,0.2634,0.2629,0.2669,0.2613,0.2943,0.2442,0.2368,0.2324,0.2328,0.2347,0.235,0.2353,0.2355,0.2356,0.1526,0.1519,0.1561,0.1604,0.1646,0.1673,0.1673,0.1787,0.1845,0.1984,0.2118,0.2197,0.2292,0.2333,0.2304,0.2319,0.2478,0.2364,0.2375,0.2391,0.2322,0.225,0.2191,0.2194,0.2196,0.2198,0.22,0,0.1436,0.1464,0.1475,0.1536,0.1536,0.1601,0.1646,0.1603,0.1659,0.182,0.1893,0.18,0.1838,0.1963,0.1928,0.1926,0.1892,0.1847,0.179,0.1829,0.1863,0.1765,0.1487,0.1485,0.1482,0.148,0,0,0.1406,0.1405,0.1413,0.1408,0.1452,0.1431,0.1433,0.1404,0.1469,0.1458,0.1539,0.1729,0.1884,0.1658,0.1638,0.1559,0.1669,0.1495,0.2073,0.2043,0.2073,0.2175,0.207,0,0,0,0,0]},{"header":{"parameterUnit":"m.s-1","parameterCategory":2,"la1":30.2991,"la2":30.254,"lo1":-89.0895,"lo2":-89.0444,"dy":0.0017,"dx":0.0017,"nx":28,"ny":28,"refTime":"2026-02-10T03:00:00:Z","depth":"2","parameterNumber":3,"parameterNumberName":"V-component_of_CURRENTS"},"data":[0,0,0,0,0,0,0,0,0,0,0,0,0,0,0,0,0,0,0,0,0,0,0,0,0,0,0,0,0,0,0,0,0,0,0,0,0,0,0,0,0,0,0,0,0,0,0,0,0,0,0,0,0,0,0,0,0,0,0.0016,0.0015,0,-0.0037,-0.0038,-0.0039,-0.0085,-0.0086,-0.0086,-0.0087,-0.0147,-0.0148,-0.0149,0,0,0,0,0,0,0,0,0,0,0,0,0,0.0035,0.0035,0.0016,0.0015,0.0015,-0.0037,-0.0038,-0.0039,-0.0085,-0.0086,-0.0086,-0.0087,-0.0146,-0.0148,-0.0149,0,0,0,0,0,0,0,0,0,0,0,0,0,0.0009,0.0035,0.0016,-0.0014,-0.0018,-0.0037,-0.0038,-0.0039,-0.0085,-0.0086,-0.0087,-0.0087,-0.0146,-0.0147,-0.0149,-0.0144,0,0,-0.0154,-0.0155,0,0,0,0,0,0,0,0,0.001,0.0008,-0.0009,-0.0012,-0.0016,-0.0055,-0.0053,-0.0074,-0.0085,-0.006,-0.0087,-0.0088,-0.0116,-0.012,-0.0129,-0.0147,-0.015,-0.0154,-0.0155,-0.0156,-0.0157,0,0,0,0,0,0,0,0.0012,0.001,-0.0005,-0.001,-0.0014,-0.004,-0.0044,-0.0058,-0.0083,-0.0062,-0.0065,-0.0071,-0.0118,-0.0127,-0.0131,-0.0151,-0.0154,-0.0156,-0.0157,-0.0158,-0.018,-0.018,0,0,0,0,0,0,0.0023,0.0012,-0.0004,-0.0007,-0.0004,-0.004,-0.0044,-0.0042,-0.0083,-0.009,-0.007,-0.0073,-0.0124,-0.0129,-0.0133,-0.0131,-0.0156,-0.0158,-0.0159,-0.0181,-0.018,-0.018,0,0,0,0,0,0,0.0023,0.0022,-0.0002,0.0001,-0.0004,-0.0039,-0.0036,-0.0043,-0.0052,-0.0089,-0.0096,-0.0073,-0.0125,-0.013,-0.0143,-0.0133,-0.0159,-0.016,-0.0181,-0.0181,-0.018,-0.0125,0,0,0,0,0,0,0.0024,0.0023,0.0026,0.0002,-0.0004,-0.0008,-0.0036,-0.0043,-0.0054,-0.0058,-0.0094,-0.01,-0.0126,-0.014,-0.0144,-0.0136,-0.0161,-0.0182,-0.0181,-0.018,-0.0128,-0.0123,-0.0119,0,0,0,0,0,0.0025,0.0037,0.0027,0.0025,0.0003,-0.0007,-0.0012,-0.004,-0.0053,-0.0053,-0.0078,-0.0099,-0.0138,-0.0141,-0.0146,-0.0138,-0.0182,-0.0181,-0.018,-0.013,-0.0124,-0.0119,0,0,0,0,0,0,0.0045,0.0033,0.0021,0.0028,0.0013,-0.0015,-0.0017,-0.0034,-0.0053,-0.0056,-0.0092,-0.01,-0.0108,-0.0128,-0.013,-0.0143,-0.0164,-0.0164,-0.0124,-0.0119,-0.0115,-0.0109,-0.0163,0,0,0,0,0,0.0053,0.0059,0.004,0.0044,0.004,0.0013,0.0005,-0.0011,-0.0031,-0.004,-0.0066,-0.0091,-0.0108,-0.0117,-0.0137,-0.0139,-0.0159,-0.0139,-0.0134,-0.0131,-0.0129,-0.0134,-0.013,-0.0177,-0.0177,-0.0177,0,0,0.0059,0.0055,0.0056,0.0049,0.0035,0.0034,0.0007,0.0001,-0.0003,-0.0042,-0.0054,-0.0075,-0.0105,-0.0112,-0.0118,-0.0128,-0.013,-0.0129,-0.0126,-0.0127,-0.0133,-0.0128,-0.0124,-0.0176,-0.0176,-0.0176,0,0,0.0079,0.0075,0.0086,0.0079,0.0067,0.0053,0.0055,0.0032,0.0018,0.0006,-0.0021,-0.0034,-0.0066,-0.0081,-0.0094,-0.0075,-0.0107,-0.0083,-0.0055,-0.0059,-0.0055,-0.0052,-0.0081,-0.008,-0.008,-0.008,-0.008,0,0.0087,0.0096,0.0086,0.0094,0.0092,0.0066,0.0074,0.0059,0.0033,0.0024,0.0008,-0.0024,-0.0051,-0.0051,-0.0052,-0.0064,-0.0081,-0.0071,-0.0053,-0.005,-0.0047,-0.0078,-0.0078,-0.0077,-0.0078,-0.0078,-0.0078,0,0.0109,0.0117,0.0124,0.0126,0.0126,0.0129,0.0112,0.0106,0.0085,0.0062,0.0054,0.0028,0.0008,0.0,-0.0026,-0.0017,-0.004,-0.0045,-0.0063,-0.0039,-0.0073,-0.0074,-0.0073,-0.0074,-0.0075,-0.0076,0,0,0.0121,0.0137,0.0138,0.0145,0.0143,0.0145,0.0148,0.0136,0.0133,0.0111,0.0107,0.0083,0.0068,0.0053,0.0035,0.0028,0.002,-0.0002,-0.0004,-0.0027,-0.0006,-0.0033,-0.0038,0.0022,0.0023,0.0023,-0.0041,0,0.0136,0.0161,0.0167,0.0185,0.0193,0.0184,0.0191,0.0179,0.0156,0.0144,0.0125,0.0109,0.009,0.0083,0.0078,0.0041,0.0021,0.0036,-0.0031,-0.0033,-0.0055,-0.0038,-0.0035,-0.0091,-0.0042,-0.0042,-0.0043,0,0.0144,0.0164,0.0189,0.0213,0.0218,0.0226,0.023,0.0235,0.0214,0.0196,0.0188,0.0159,0.0153,0.0126,0.0093,0.0105,0.0047,0.0014,0.0011,-0.0033,-0.0061,-0.0106,-0.0096,-0.0045,-0.0045,-0.0045,-0.0045,0,0.0145,0.0172,0.0195,0.0201,0.0229,0.0239,0.0251,0.0243,0.0259,0.0226,0.0231,0.0208,0.0214,0.0159,0.0105,0.0088,0.0061,0.0027,-0.0055,-0.0058,-0.0079,-0.0085,-0.0018,-0.0018,-0.0018,-0.0018,-0.0017,0,0.0151,0.0164,0.0194,0.021,0.0248,0.0252,0.0289,0.0284,0.0293,0.0334,0.0267,0.0308,0.0224,0.0204,0.0123,0.0052,0.008,-0.0051,-0.007,-0.0062,-0.0065,-0.0043,-0.0045,-0.002,-0.0019,-0.0019,-0.0019,0,0.0144,0.0159,0.0197,0.0238,0.0252,0.028,0.034,0.0372,0.0358,0.0412,0.0409,0.0388,0.0353,0.0262,0.0175,0.009,0.0005,-0.0036,-0.0032,-0.005,-0.0132,-0.0131,-0.0164,-0.0165,-0.0166,-0.0167,-0.0168,0,0.0143,0.0166,0.023,0.0271,0.0293,0.0339,0.0392,0.0406,0.0458,0.0491,0.0539,0.0493,0.0504,0.0355,0.0178,0.0009,0.0005,-0.0111,-0.0153,-0.0129,-0.0144,-0.0141,-0.0138,-0.0169,-0.017,-0.017,-0.0171,0,0.0175,0.0199,0.0238,0.0313,0.0374,0.0462,0.0533,0.0591,0.0636,0.0694,0.0783,0.0776,0.0585,0.0423,0.0152,0.0034,-0.0089,-0.0132,-0.0083,-0.0129,-0.0138,-0.0151,-0.0147,-0.0176,-0.0176,-0.0175,-0.0175,-0.0175,0.0195,0.0237,0.0296,0.0372,0.0446,0.0577,0.0683,0.0791,0.0917,0.1017,0.0975,0.0976,0.0695,0.0361,0.0125,-0.0134,-0.0138,-0.0229,-0.0225,-0.0221,-0.0207,-0.0216,-0.0269,-0.0269,-0.0269,-0.0269,-0.0269,0,0.023,0.0283,0.0359,0.0463,0.0573,0.06,0.0777,0.0912,0.1119,0.1171,0.1228,0.0968,0.0722,0.0424,0.0021,-0.0234,-0.025,-0.03,-0.0265,-0.0259,-0.0254,-0.0239,-0.0311,-0.0312,-0.0312,-0.0313,0,0,0.0249,0.033,0.0384,0.0563,0.0641,0.0823,0.095,0.1164,0.127,0.135,0.1329,0.1207,0.0821,0.0527,0.0165,-0.0058,-0.0089,-0.0103,-0.0047,0.0041,0.0051,-0.0201,-0.017,0,0,0,0,0]}],[{"header":{"parameterUnit":"m.s-1","parameterCategory":2,"la1":30.2991,"la2":30.254,"lo1":-89.0895,"lo2":-89.0444,"dy":0.0017,"dx":0.0017,"nx":28,"ny":28,"refTime":"2026-02-10T03:00:00:Z","depth":"4","parameterNumber":2,"parameterNumberName":"U-component_of_CURRENTS"},"data":[0,0,0,0,0,0,0,0,0,0,0,0,0,0,0,0,0,0,0,0,0,0,0,0,0,0,0,0,0,0,0,0,0,0,0,0,0,0,0,0,0,0,0,0,0,0,0,0,0,0,0,0,0,0,0,0,0,0,0.0987,0.0987,0,0.1012,0.1012,0.1012,0.1036,0.1036,0.1036,0.1037,0.1067,0.1067,0.1068,0,0,0,0,0,0,0,0,0,0,0,0,0,0.0963,0.0964,0.0987,0.0987,0.0988,0.1012,0.1012,0.1012,0.1036,0.1036,0.1037,0.1037,0.1067,0.1067,0.1068,0,0,0,0,0,0,0,0,0,0,0,0,0,0.0978,0.0964,0.0987,0.1003,0.1005,0.1012,0.1012,0.1012,0.1036,0.1036,0.1037,0.1037,0.1066,0.1067,0.1068,0.106,0,0,0.107,0.107,0,0,0,0,0,0,0,0,0.0978,0.0979,0.1,0.1002,0.1004,0.1022,0.1015,0.1029,0.1035,0.1023,0.1037,0.1037,0.1053,0.1054,0.1056,0.1062,0.1063,0.107,0.107,0.1071,0.1071,0,0,0,0,0,0,0,0.0976,0.0978,0.0996,0.1001,0.1003,0.101,0.1013,0.1018,0.1033,0.1024,0.1026,0.103,0.1054,0.1056,0.1057,0.1063,0.107,0.107,0.1071,0.1071,0.1153,0.1155,0,0,0,0,0,0,0.0975,0.0977,0.0995,0.0997,0.0993,0.101,0.1013,0.1015,0.1033,0.1037,0.103,0.1031,0.1054,0.1056,0.1058,0.1123,0.107,0.1071,0.1071,0.1151,0.1153,0.1155,0,0,0,0,0,0,0.0974,0.0976,0.0994,0.0989,0.0992,0.101,0.1012,0.1015,0.1044,0.1038,0.1041,0.1058,0.1055,0.1057,0.1092,0.1122,0.1071,0.1072,0.1149,0.1152,0.1154,0.1206,0,0,0,0,0,0,0.0973,0.0975,0.0988,0.0988,0.0992,0.1014,0.1012,0.1015,0.1044,0.1047,0.1063,0.1064,0.1055,0.1092,0.1093,0.1122,0.1073,0.1147,0.115,0.1153,0.1202,0.121,0.1217,0,0,0,0,0,0.0972,0.0982,0.0988,0.0991,0.1004,0.1015,0.1018,0.1032,0.1045,0.106,0.1079,0.1065,0.1114,0.1093,0.1095,0.1124,0.1145,0.1149,0.1153,0.1199,0.1209,0.1217,0,0,0,0,0,0,0.0975,0.0986,0.0992,0.1005,0.1018,0.102,0.1035,0.1049,0.1075,0.1086,0.1084,0.1087,0.1122,0.1123,0.1101,0.116,0.1129,0.1133,0.1163,0.1172,0.118,0.1166,0.1073,0,0,0,0,0,0.0982,0.0993,0.1004,0.1014,0.1023,0.1036,0.1048,0.1061,0.1077,0.109,0.1105,0.1123,0.1135,0.1156,0.1158,0.1197,0.1198,0.1219,0.1227,0.1233,0.1225,0.1277,0.1288,0.1168,0.1168,0.1168,0,0,0.0985,0.0993,0.1,0.1017,0.1026,0.1048,0.1045,0.107,0.1092,0.1088,0.1133,0.1142,0.1148,0.1183,0.1201,0.1194,0.1268,0.1238,0.1243,0.1232,0.1282,0.1294,0.1304,0.1171,0.1171,0.117,0,0,0.0992,0.1005,0.102,0.1036,0.106,0.1069,0.1085,0.1108,0.1125,0.1161,0.1166,0.1202,0.1223,0.1241,0.1248,0.1304,0.1295,0.1312,0.1352,0.1404,0.1414,0.1422,0.1435,0.1444,0.133,0.1331,0.1331,0,0.1003,0.1011,0.1026,0.1047,0.1062,0.1085,0.1107,0.1127,0.1164,0.1177,0.1183,0.1236,0.1247,0.1292,0.1313,0.1319,0.1335,0.1315,0.1413,0.1422,0.143,0.144,0.145,0.1334,0.1333,0.1333,0.1333,0,0.1015,0.1033,0.1043,0.1076,0.11,0.1118,0.1149,0.1182,0.1206,0.1221,0.1269,0.1296,0.1335,0.1347,0.1344,0.1414,0.1401,0.1404,0.1386,0.1445,0.1452,0.1462,0.1338,0.1337,0.1336,0.1335,0,0,0.1004,0.1044,0.105,0.1056,0.1115,0.1121,0.1177,0.1209,0.1234,0.1282,0.1319,0.1362,0.1391,0.1403,0.1426,0.147,0.1541,0.1469,0.147,0.1473,0.1636,0.1528,0.1527,0.1571,0.1573,0.1575,0.1616,0,0.1007,0.1025,0.1066,0.1093,0.1094,0.1148,0.1189,0.123,0.1265,0.1308,0.1353,0.1391,0.1411,0.1442,0.1498,0.1519,0.1569,0.1528,0.1584,0.1585,0.1477,0.1536,0.1582,0.1623,0.1625,0.1626,0.1627,0,0.0992,0.1004,0.1026,0.1063,0.1076,0.1114,0.1167,0.1215,0.1288,0.1319,0.1393,0.1424,0.1506,0.1511,0.161,0.1587,0.1622,0.1635,0.1637,0.152,0.1495,0.1555,0.1644,0.1642,0.1641,0.164,0.1639,0,0.0912,0.0965,0.0972,0.0988,0.1054,0.1085,0.1135,0.1211,0.1253,0.1341,0.1377,0.1471,0.1531,0.1596,0.1652,0.1642,0.1736,0.1727,0.1661,0.1652,0.1712,0.1702,0.1802,0.1802,0.1802,0.1802,0.1802,0,0.0857,0.086,0.0933,0.0932,0.0958,0.1032,0.1086,0.1144,0.1245,0.1297,0.1392,0.1448,0.156,0.1629,0.1668,0.169,0.1768,0.1664,0.1663,0.1732,0.1724,0.1718,0.1707,0.1803,0.1803,0.1803,0.1803,0,0.0749,0.0797,0.0808,0.0887,0.0915,0.0937,0.106,0.1097,0.1203,0.1283,0.1318,0.145,0.1539,0.1623,0.1718,0.1699,0.1728,0.1722,0.1775,0.1776,0.1599,0.1592,0.1632,0.1629,0.1626,0.1624,0.1622,0,0.0688,0.0684,0.0767,0.0789,0.0829,0.0889,0.0937,0.106,0.1112,0.1273,0.1299,0.1423,0.1503,0.1552,0.1644,0.17,0.1698,0.1684,0.1647,0.1591,0.1586,0.1583,0.1579,0.1617,0.1616,0.1616,0.1615,0,0.0591,0.0636,0.0659,0.0704,0.0751,0.0802,0.0882,0.0913,0.1065,0.1163,0.1259,0.1325,0.1421,0.15,0.1558,0.1597,0.1669,0.1655,0.166,0.1625,0.1573,0.1571,0.157,0.1605,0.1607,0.1608,0.1608,0,0.0538,0.0536,0.0589,0.062,0.0672,0.0706,0.0763,0.0847,0.0924,0.1108,0.1139,0.1287,0.1409,0.1449,0.1503,0.1528,0.1509,0.1456,0.1471,0.1483,0.1417,0.1327,0.1286,0,0,0,0,0,0.0482,0.048,0.0505,0.0539,0.0588,0.0621,0.0724,0.0795,0.0935,0.0973,0.1062,0.1153,0.125,0.1326,0.1326,0.1424,0.15,0.1414,0.1441,0.1552,0.1563,0.15,0,0,0,0,0,0,0.0446,0.0462,0.0475,0.0468,0.0478,0.0526,0.0589,0.0687,0.0729,0.088,0.0949,0.106,0.1177,0.1235,0.1294,0.1316,0.1305,0.1507,0.1504,0.1545,0.1555,0.1564,0.1504,0,0,0,0,0]},{"header":{"parameterUnit":"m.s-1","parameterCategory":2,"la1":30.2991,"la2":30.254,"lo1":-89.0895,"lo2":-89.0444,"dy":0.0017,"dx":0.0017,"nx":28,"ny":28,"refTime":"2026-02-10T03:00:00:Z","depth":"4","parameterNumber":3,"parameterNumberName":"V-component_of_CURRENTS"},"data":[0,0,0,0,0,0,0,0,0,0,0,0,0,0,0,0,0,0,0,0,0,0,0,0,0,0,0,0,0,0,0,0,0,0,0,0,0,0,0,0,0,0,0,0,0,0,0,0,0,0,0,0,0,0,0,0,0,0,0.0052,0.0051,0,0.0026,0.0026,0.0025,0.0001,0.0001,0.0001,0.0001,-0.0025,-0.0025,-0.0026,0,0,0,0,0,0,0,0,0,0,0,0,0,0.0051,0.0052,0.0052,0.0051,0.0051,0.0026,0.0026,0.0025,0.0001,0.0001,0.0001,0.0,-0.0025,-0.0025,-0.0026,0,0,0,0,0,0,0,0,0,0,0,0,0,0.0041,0.0052,0.0052,0.0036,0.0034,0.0026,0.0026,0.0025,0.0002,0.0001,0.0001,0.0,-0.0025,-0.0025,-0.0026,-0.0021,0,0,-0.0028,-0.0028,0,0,0,0,0,0,0,0,0.0042,0.0041,0.0039,0.0037,0.0035,0.0016,0.0016,0.001,0.0002,0.0014,0.0001,0.0,-0.0011,-0.0013,-0.0016,-0.0022,-0.0023,-0.0028,-0.0028,-0.0028,-0.0029,0,0,0,0,0,0,0,0.0043,0.0042,0.0041,0.0038,0.0036,0.002,0.0019,0.0015,0.0004,0.0013,0.0011,0.0008,-0.0012,-0.0016,-0.0017,-0.0023,-0.0028,-0.0028,-0.0029,-0.0029,-0.0049,-0.0049,0,0,0,0,0,0,0.0048,0.0043,0.0042,0.0041,0.0037,0.0021,0.0019,0.0023,0.0004,0.0001,0.0009,0.0007,-0.0015,-0.0016,-0.0018,-0.0027,-0.0028,-0.0029,-0.0029,-0.0049,-0.0049,-0.0049,0,0,0,0,0,0,0.0048,0.0048,0.0043,0.0041,0.0039,0.0022,0.0026,0.0023,0.0017,0.0001,-0.0002,0.0006,-0.0015,-0.0017,-0.0024,-0.0028,-0.0029,-0.003,-0.0049,-0.0049,-0.0049,-0.0037,0,0,0,0,0,0,0.0048,0.0049,0.0053,0.0041,0.0039,0.0041,0.0026,0.0022,0.0016,0.0014,-0.0002,-0.0005,-0.0015,-0.0023,-0.0024,-0.0029,-0.003,-0.0049,-0.0049,-0.0049,-0.0037,-0.0036,-0.0036,0,0,0,0,0,0.0049,0.0058,0.0054,0.0053,0.0046,0.0041,0.0039,0.0024,0.0016,0.0017,0.0004,-0.0004,-0.0026,-0.0023,-0.0025,-0.003,-0.0048,-0.0049,-0.0049,-0.0037,-0.0036,-0.0036,0,0,0,0,0,0,0.0059,0.0056,0.0051,0.0059,0.0051,0.0037,0.0037,0.0027,0.0017,0.0016,-0.0002,-0.0005,-0.0014,-0.0022,-0.0018,-0.0038,-0.004,-0.0041,-0.0031,-0.003,-0.003,-0.0041,-0.0031,0,0,0,0,0,0.0064,0.0071,0.0062,0.0068,0.0066,0.0052,0.0048,0.0039,0.0029,0.0024,0.0011,-0.0003,-0.0017,-0.0023,-0.0033,-0.0038,-0.0057,-0.0045,-0.0044,-0.0044,-0.0055,-0.0079,-0.0082,-0.0051,-0.0051,-0.0051,0,0,0.0067,0.0069,0.0071,0.0071,0.0064,0.0061,0.0048,0.0046,0.0039,0.0024,0.0013,0.0001,-0.0018,-0.0028,-0.0033,-0.0035,-0.0062,-0.0044,-0.0044,-0.0055,-0.008,-0.0083,-0.0085,-0.0051,-0.0051,-0.0051,0,0,0.0076,0.0082,0.0087,0.0084,0.0079,0.0072,0.0072,0.006,0.005,0.0042,0.0024,0.0008,-0.0005,-0.0025,-0.0036,-0.0039,-0.0058,-0.0041,-0.0049,-0.0071,-0.0074,-0.0077,-0.0101,-0.0106,-0.0042,-0.0042,-0.0042,0,0.0078,0.0089,0.0086,0.0089,0.0091,0.0077,0.0081,0.0067,0.0053,0.0044,0.0041,0.0004,-0.0008,-0.0035,-0.0041,-0.0039,-0.0056,-0.0047,-0.0071,-0.0074,-0.0077,-0.0101,-0.0107,-0.0041,-0.0041,-0.0041,-0.0041,0,0.0085,0.0097,0.0101,0.0102,0.0101,0.0108,0.0091,0.0085,0.0074,0.0056,0.0032,0.001,-0.0012,-0.0021,-0.0034,-0.0064,-0.007,-0.0066,-0.0072,-0.008,-0.0105,-0.0111,-0.004,-0.0041,-0.0041,-0.0041,0,0,0.0087,0.0104,0.0106,0.0123,0.0115,0.0123,0.0106,0.0093,0.0093,0.0058,0.0047,0.0005,-0.0011,-0.0026,-0.0044,-0.0074,-0.0108,-0.0082,-0.0084,-0.0105,-0.0163,-0.0158,-0.0164,-0.0107,-0.0109,-0.0109,-0.017,0,0.0096,0.0124,0.0118,0.0142,0.0162,0.0146,0.0142,0.0125,0.0105,0.0091,0.0041,0.003,-0.0012,-0.001,-0.0055,-0.0091,-0.0125,-0.0093,-0.0153,-0.0155,-0.0149,-0.0171,-0.0113,-0.0175,-0.0176,-0.0177,-0.0178,0,0.0103,0.013,0.016,0.0195,0.02,0.0204,0.0211,0.0204,0.0162,0.0148,0.0099,0.0067,0.0005,-0.0009,-0.0111,-0.0089,-0.0131,-0.0165,-0.0167,-0.0174,-0.0162,-0.0167,-0.019,-0.0189,-0.0188,-0.0187,-0.0186,0,0.0137,0.0162,0.0199,0.0207,0.0231,0.0239,0.0246,0.0221,0.0231,0.0184,0.0189,0.0095,0.0077,-0.0012,-0.0102,-0.0102,-0.0205,-0.0204,-0.0245,-0.0245,-0.0236,-0.0232,-0.027,-0.027,-0.027,-0.027,-0.027,0,0.0166,0.02,0.0223,0.0251,0.0299,0.029,0.0326,0.0312,0.03,0.0313,0.0227,0.0216,0.0078,0.0,-0.0094,-0.0197,-0.02,-0.026,-0.0264,-0.0228,-0.0223,-0.024,-0.0236,-0.0272,-0.0272,-0.0271,-0.0271,0,0.0209,0.0223,0.0274,0.0307,0.0323,0.0358,0.0398,0.0421,0.04,0.0413,0.0405,0.0308,0.0193,0.0054,-0.0083,-0.0162,-0.0266,-0.0294,-0.0251,-0.025,-0.0296,-0.029,-0.0356,-0.0356,-0.0357,-0.0357,-0.0357,0,0.0241,0.0269,0.0322,0.0358,0.0378,0.043,0.0468,0.0473,0.0492,0.0468,0.0475,0.0375,0.0291,0.0092,-0.0063,-0.0254,-0.0271,-0.0321,-0.0321,-0.0309,-0.0307,-0.03,-0.0294,-0.0358,-0.0358,-0.0358,-0.0358,0,0.0297,0.0307,0.0348,0.042,0.0471,0.0533,0.0578,0.0605,0.0602,0.0591,0.0539,0.0421,0.029,0.01,-0.0045,-0.018,-0.0295,-0.0325,-0.0326,-0.0326,-0.0312,-0.0308,-0.0302,-0.0359,-0.0359,-0.0359,-0.0359,0,0.0331,0.0365,0.0408,0.0471,0.0541,0.0601,0.063,0.0647,0.0667,0.0628,0.0608,0.0454,0.0355,0.014,0.0004,-0.0135,-0.0171,-0.0202,-0.021,-0.021,-0.0156,-0.0115,-0.0116,0,0,0,0,0,0.0357,0.0393,0.0456,0.0523,0.059,0.0629,0.0685,0.0699,0.07,0.0677,0.0643,0.0517,0.0296,0.0191,0.0053,-0.001,-0.0198,-0.0175,-0.0238,-0.0366,-0.0365,-0.0326,0,0,0,0,0,0,0.0375,0.0432,0.0458,0.0549,0.0598,0.0678,0.0715,0.072,0.0699,0.0673,0.0553,0.0491,0.0268,0.0372,0.0051,0.0006,-0.0048,-0.0285,-0.0287,-0.0367,-0.0366,-0.0364,-0.0324,0,0,0,0,0]}]]